www.pogodaiklimat.ru

Погода и климат >> Архив погоды >> Россия >> Краснодарский край >> Красная Поляна


ПОГОДА в Красной Поляне

  • Прогноз погоды в Красной Поляне
  • Монитор погоды в Красной Поляне
  • Климат города

АРХИВ ПОГОДЫ в Красной Поляне

Время (UTC), дата Ветер
(напр.,м/с)
 
Видим.   Явления Облачность Т
(С)
Тd
(С)
f
(%)
Тe
(С)
Тes
(С)
Комфортность P
(гПа)
Po
(гПа)
Тmin
(С)
Tmax
(С)
R
(мм)
R24
(мм)
S
(см)
03 10.12 СВ 1 20 км 8/0
[Ci fib]
+1.0 -1.4 84 -1 -1 1023.0 953.9 -0.9 12
06 10.12 С 2 20 км 4/1 1000 м
[Cu med, cong Ac As Ci sp]
+1.4 -1.3 82 -2 -2 1022.7 953.7
09 10.12 штиль 0 20 км ясно +7.9 +0.6 60 +7 +12 1019.1 951.9
12 10.12 С 1 19 км 3/0
[Ac lent]
+7.7 +0.9 62 +7 +8 1018.1 950.9
15 10.12 С 2 19 км ясно +4.3 +0.8 78 +2 +2 1019.0 951.0 +10.2
18 10.12 СВ 2 20 км ясно +3.2 +0.1 80 0 0 1019.3 951.0
21 10.12 СВ 1 20 км 10/0
[Ac As]
+2.8 +0.5 85 +1 +1 1020.2 951.7
00 11.12 З 1 2200 м ливневой дождь 10/10 600 м
[Cb cap]
+2.7 +2.6 99 +1 +1 1023.0 954.4
03 11.12 В 2 1600 м слабый ливневой дождь 10/10 600 м
[Cb cap]
+0.7 +0.7 100 -3 -3 1026.2 956.8 +0.4 17 9
06 11.12 С 1 18 км {ливн. осадки} 4/1 1500 м
[Cu med, cong Ci]
+1.1 +1.1 100 -1 -1 1028.1 958.7
09 11.12 ЮВ 1 17 км 10/0
[Ci]
+4.6 +1.6 81 +3 +6 1027.9 959.4
12 11.12 ЮВ 1 20 км 10/0
[Ci]
+6.3 +1.2 70 +5 +7 1027.5 959.4
15 11.12 СВ 1 19 км 10/0
[Ci]
+3.4 +1.0 84 +2 +2 1030.0 961.0 +7.1
18 11.12 СВ 1 20 км 8/0
[Ci]
+3.6 +0.1 78 +2 +2 1029.7 960.8
21 11.12 СВ 1 20 км 10/3 1500 м
[Sc Ci]
+2.2 -0.4 83 +1 +1 1030.7 961.4
00 12.12 С 1 20 км 4/0
[Ci]
+1.1 -0.8 87 -1 -1 1030.5 960.9
03 12.12 С 1 20 км 4/0
[Ci]
+1.8 -3.5 68 0 0 1029.5 960.1 +0.4 4
06 12.12 В 1 20 км ясно 0.0 -2.5 83 -2 -1 1030.7 960.8 -0.9
09 12.12 Ю 1 20 км 3/0
[Cc]
+7.3 -2.4 50 +7 +11 1027.3 959.4
12 12.12 СВ 1 19 км 8/0
[Ci fib]
+8.8 -1.0 50 +9 +10 1025.2 957.8
15 12.12 В 1 20 км 1/0
[Ac cast]
+3.9 -0.1 75 +3 +3 1027.2 958.5 +10.9
18 12.12 штиль 0 19 км ясно +1.6 -1.3 81 +1 +1 1027.9 958.6
21 12.12 СВ 1 20 км 8/0
[Ci sp]
+1.5 -2.4 75 -0 -0 1027.5 958.2
00 13.12 СВ 1 20 км ясно +0.2 -3.5 76 -2 -2 1026.9 957.3
03 13.12 СВ 1 20 км ясно +1.0 -4.2 68 -1 -1 1025.4 956.1 -0.1 4
06 13.12 штиль 0 20 км 3/0
[Ci]
-0.4 -3.9 77 -1 -1 1025.9 956.2 -0.9
09 13.12 штиль 0 20 км ясно +8.9 -3.6 41 +9 +13 1021.9 954.7
12 13.12 С 1 20 км ясно +9.3 -1.7 46 +9 +11 1019.8 952.9
15 13.12 СВ 1 19 км ясно +4.8 -1.0 66 +4 +4 1021.4 953.3 +12.9
18 13.12 В 2 18 км ясно +2.8 -1.9 71 0 0 1022.5 953.9
21 13.12 СВ 1 20 км ясно +2.7 -2.4 69 +1 +1 1021.7 953.1
00 14.12 СВ 1 20 км ясно +0.9 -2.3 79 -1 -1 1021.9 952.8
03 14.12 СВ 1 20 км ясно +0.6 -2.6 79 -1 -1 1021.0 951.9 +0.1 3
06 14.12 В 1 20 км 10/0
[Ci]
+1.8 -2.3 74 0 +1 1020.3 951.6
09 14.12 Ю 1 20 км 4/0
[Ci]
+9.5 -1.2 47 +9 +13 1016.2 949.5
12 14.12 штиль 0 20 км 10/0
[As trans Ci]
+10.1 +0.2 50 +10 +11 1014.6 948.2
15 14.12 С 1 20 км 10/0
[Ci sp]
+5.8 -0.1 66 +5 +5 1016.5 949.0 +10.7
18 14.12 С 1 20 км 10/0
[Ac As]
+4.0 -0.2 74 +3 +3 1017.0 949.0
21 14.12 В 1 20 км ясно +2.4 -1.0 78 +1 +1 1018.2 949.8
00 15.12 штиль 0 20 км 3/0
[Ci]
+1.8 -1.3 80 +1 +1 1018.9 950.3
03 15.12 С 2 20 км ясно +2.6 -1.7 73 -0 -0 1019.1 950.6 +0.5 2
06 15.12 СВ 1 20 км ясно +0.9 -1.8 82 -1 -0 1021.5 952.5 +0.2
09 15.12 Ю 1 20 км 8/0
[Ci]
+9.4 -2.2 44 +9 +13 1018.2 951.4
12 15.12 ЮВ 1 20 км 10/8 1500 м
[Sc Ac lent]
+9.3 -0.9 49 +9 +9 1019.6 952.7
15 15.12 С 2 19 км 10/0
[Ac lent]
+6.4 +0.3 65 +4 +4 1021.2 953.5 +12.1
18 15.12 СВ 1 20 км 3/0
[Ac lent]
+4.9 +0.1 71 +4 +4 1022.2 954.1
21 15.12 В 1 20 км ясно +3.4 -0.6 75 +2 +2 1023.1 954.6
00 16.12 СВ 2 20 км ясно +4.0 -0.4 73 +1 +1 1022.9 954.5
03 16.12 СВ 1 20 км ясно +2.4 -0.5 81 +1 +1 1022.2 953.5 +1.4 2
06 16.12 В 1 20 км 10/0
[Ac As Cs]
+2.5 -0.4 81 +1 +1 1022.1 953.4
09 16.12 В 1 19 км 10/0
[Ci sp]
+8.9 +0.6 56 +9 +12 1019.5 952.5
12 16.12 СЗ 1 19 км 9/0
[Ci fib]
+12.4 +1.4 47 +13 +14 1017.2 951.2
15 16.12 СВ 2 16 км 10/0
[Ac As Ci sp]
+6.8 +0.3 63 +5 +5 1019.8 952.3 +13.6
18 16.12 С 1 17 км 10/4 1000 м
[Sc Ac As]
+4.6 +0.2 73 +4 +4 1022.0 953.8
21 16.12 С 2 20 км 6/3 1000 м
[Sc Ac As]
+4.8 -0.4 69 +2 +2 1022.0 953.9

 

Местоположение метеостанции Красная Поляна (Краснодарский край, Россия): широта 43.68 долгота 40.20 высота над уровнем моря 567 м.

В архиве по умолчанию представлена погода в Красной Поляне за последнюю неделю. Архивные данные за месяц целиком и за предыдущие месяцы, начиная с января 2011 года, Вы можете получить, выбрав интересующий диапазон дат из раскрывающегося списка и нажав кнопку "Ввод!".

Внимание! Время в таблицах - всемирное. Для получения местного времени необходимо прибавить поправку, которая в Красной Поляне равна 3 ч.

Смотрите также архив погоды в соседних городах и на ближайших метеорологических станциях:

Погода в Гузерипле (Адыгея, Россия) (36 км)
Погода в Сочи (Краснодарский край, Россия) (36 км)
Погода в Сочи аэропорту (Адлер) (Краснодарский край, Россия) (37 км)
Погода в Псебае (Краснодарский край, Россия) (68 км)
Погода в Шунтуке (Адыгея, Россия) (88 км)
Погода в Горном (Краснодарский край, Россия) (100 км)
Погода в Туапсе (Краснодарский край, Россия) (102 км)
Погода в Майкопе (Адыгея, Россия) (105 км)
Погода в Зеленчукской (Карачаево-Черкессия, Россия) (112 км)
Погода в Лабинске (Краснодарский край, Россия) (119 км)

Пояснения к столбцам:

Ветер - указаны скорость ветра в м/с - средняя за 10 мин, порывы в срок и между сроками (в фигурных скобках) и направление, откуда дует ветер: С - северный, СВ - северо-восточный, В - восточный, ЮВ - юго-восточный, Ю - южный, ЮЗ - юго-западный, З - западный, СЗ - северо-западный.
Видимость - горизонтальная дальность видимости в метрах или километрах. При видимости от 1 до 10 км при отсутствии осадков обычно наблюдается дымка, при ухудшении видимости до 1 км и менее - туман. В сухую погоду видимость может ухудшаться дымом, пылью или мглою.
Явления - указаны атмосферные явления, наблюдавшиеся в срок или в последний час перед сроком; фигурными скобками обозначены явления, наблюдавшиеся между сроками (за 1-3 часа до срока); квадратными скобками обозначены град или гололедные отложения с указанием их диаметра в мм.
Облачность - указаны через наклонную черту общая и нижняя облачность в баллах и высота нижней границы облаков в метрах; квадратными скобками обозначены формы облаков: Ci - перистые, Cs - перисто-слоистые, Cc - перисто-кучевые, Ac - высококучевые, As - высокослоистые, Sc - слоисто-кучевые, Ns - слоисто-дождевые, Cu - кучевые, Cb - кучево-дождевые. Подробнее классификацию облаков см. в Атласе облаков (PDF).
T - Температура воздуха - температура, измеренная на высоте 2 м над землей.
Td - Температура точки росы - температура, при понижении до которой содержащийся в воздухе водяной пар достигнет насыщения.
f - Относительная влажность воздуха - влажноcть воздуха, измеренная на высоте 2 м над землей.
Te - Эффективная температура - температура, которую ощущает одетый по сезону человек в тени. Характеристика душности погоды. При расчете учитывается влияние влажности воздуха и скорости ветра на теплоощущения человека.
Tes - Эффективная температура на солнце - температура, которую ощущает человек, с поправкой на солнечный нагрев. Характеристика знойности погоды. Зависит от высоты солнца над горизонтом, облачности и скорости ветра. Ночью, в пасмурную погоду, а также при ветре 12 м/с и более поправка равна нулю.
P - Атмосферное давление - приведенное к уровню моря атмосферное давление.
Po - Атмосферное давление - измеренное на уровне метеостанции атмосферное давление.
Tmin - Минимальная температура - минимум температуры воздуха на высоте 2 м над землей.
Tmax - Максимальная температура - максимум температуры воздуха на высоте 2 м над землей.
R - Количество осадков - Количество выпавших осадков за период времени, мм. При наведении курсора мыши на число - период времени, за который выпало указанное количество осадков.
R24 - Количество осадков - Количество выпавших осадков за 24 часа, мм.
S - Снежный покров - Высота снежного покрова, см. При наведении курсора мыши на число - состояние снежного покрова и степень покрытия местности в баллах.